Theta_e
314 314 312 309 309 310 312 314 315 314 313 311 312 313 314 314 314 314 314 314 317 318 317 318 316 315 322 321 322 321 313 312 314 319 319 323 318 325 335 345 345 342 341 337 348
312 315 315 313 309 309 310 312 314 315 314 312 312 313 313 314 315 318 316 314 320 320 318 315 313 317 321 321 320 318 311 314 315 319 318 320 321 322 323 328 343 345 349 349 347
311 312 315 315 313 310 310 310 313 315 315 314 311 312 313 314 321 325 321 318 319 320 318 315 318 319 320 321 320 317 315 315 318 320 320 320 322 324 322 320 342 348 351 349 348
311 311 313 316 315 312 310 310 311 314 315 315 312 311 313 314 327 327 321 317 318 320 315 317 320 320 317 316 319 317 318 318 320 321 320 319 322 322 322 336 340 347 351 349 347
311 312 313 315 316 314 311 311 314 315 315 315 313 311 312 314 319 327 322 316 315 315 317 320 320 320 316 317 318 316 318 321 322 321 320 321 320 321 325 333 341 347 350 348 349
311 312 314 315 316 314 311 314 315 315 315 315 313 310 312 314 326 326 323 317 314 314 320 320 320 320 318 319 318 321 322 322 323 322 322 320 320 320 323 328 344 347 347 343 342
311 312 313 313 315 313 312 316 315 316 315 315 312 310 312 315 325 325 325 321 315 314 319 319 320 321 321 322 323 323 321 319 321 322 321 323 319 319 324 330 337 344 344 345 344
311 312 312 312 313 311 314 316 316 315 315 313 312 311 314 318 322 324 325 320 318 317 319 320 320 320 323 323 322 320 319 320 320 322 324 322 320 320 324 323 329 337 343 341 337
310 312 312 313 313 314 315 316 316 317 317 315 313 318 320 323 323 322 325 325 322 322 322 322 322 323 323 319 317 316 320 321 320 322 321 320 321 321 324 323 323 325 331 336 334
311 311 313 314 316 320 320 320 324 320 318 317 315 319 322 324 324 323 324 325 324 324 323 322 322 317 314 315 319 320 321 320 320 320 321 321 319 319 322 321 322 323 325 335 337
312 311 312 314 320 320 319 325 320 323 320 320 319 321 325 325 324 323 322 324 325 324 319 322 318 318 318 317 319 320 320 321 322 321 322 321 320 320 322 323 321 320 332 340 346
311 312 311 317 319 320 319 317 317 317 316 318 318 320 324 324 325 323 321 322 324 321 322 320 318 318 319 320 320 320 320 321 321 322 323 321 321 321 321 321 322 322 337 338 340
311 312 312 316 318 320 318 317 318 319 319 319 319 320 320 323 325 325 323 322 322 322 322 320 321 321 320 320 321 321 321 322 322 322 321 321 322 320 320 322 327 324 332 337 337
311 312 313 312 318 319 317 316 317 318 318 323 323 323 322 322 323 323 323 323 320 320 319 319 321 322 322 322 321 320 321 322 323 323 321 322 322 321 319 328 327 326 332 337 337
311 312 313 312 317 317 315 316 317 321 334 330 323 324 324 324 325 325 321 322 320 320 319 319 321 320 320 321 323 322 322 322 323 322 319 322 320 320 327 329 325 324 328 334 338
312 313 314 313 315 316 315 316 319 326 334 326 326 326 324 324 325 325 322 323 323 320 321 320 323 322 321 322 322 322 324 321 319 317 321 323 321 324 329 329 326 325 326 331 330
312 314 314 313 317 315 315 321 323 327 327 326 326 325 324 325 325 325 325 323 321 321 320 320 321 321 325 325 323 321 320 323 324 323 323 326 325 326 328 327 325 324 323 323 323
313 317 317 313 314 314 317 318 325 326 327 321 320 321 322 321 321 321 321 322 322 320 320 322 323 324 325 325 325 325 321 323 328 328 326 325 327 327 326 327 324 325 324 322 322
314 319 319 316 315 315 317 317 321 326 323 322 321 319 319 321 320 320 320 320 321 320 323 324 325 324 325 325 322 325 324 323 326 327 328 326 327 325 325 325 325 324 326 324 321
314 318 319 318 317 316 313 315 318 321 321 320 319 319 319 319 320 318 320 321 321 323 321 323 325 323 322 323 322 324 323 324 322 328 330 328 328 327 324 325 324 323 323 322 322
313 318 317 316 317 315 311 314 319 320 318 318 318 317 318 319 319 318 320 319 320 321 321 321 320 321 320 320 318 317 322 322 321 323 325 325 324 322 321 323 323 323 322 321 322
310 312 317 317 316 314 315 317 318 319 316 318 317 317 318 318 318 319 319 319 319 318 319 318 317 319 320 318 317 318 323 321 319 324 320 319 321 322 318 321 322 322 320 320 320
310 314 317 316 313 312 312 315 317 316 316 317 317 317 317 317 316 319 319 319 319 319 317 316 314 315 316 314 319 320 319 320 316 315 320 318 318 319 320 321 321 320 319 318 318
312 312 313 314 311 311 310 312 314 314 316 316 316 316 316 316 315 316 318 318 318 318 318 316 314 315 315 315 315 322 321 321 317 317 318 319 317 321 321 321 320 320 318 318 317
312 309 308 306 308 307 310 312 314 314 314 315 315 316 315 315 315 317 317 318 318 318 318 313 314 314 314 315 315 315 316 317 320 317 318 317 317 316 319 318 319 319 318 317 317
306 306 306 306 307 306 306 308 311 310 310 310 312 314 312 313 315 315 315 315 316 316 315 312 313 314 316 316 317 317 316 315 315 316 318 317 315 311 314 314 318 318 318 317 317
298 302 306 305 305 304 305 307 307 308 309 310 310 309 310 310 312 310 310 313 313 315 315 313 311 313 314 317 318 317 316 315 315 315 313 314 315 313 313 313 317 319 319 317 318
Wind_Speed
12 11 10 8 6 5 5 5 5 5 5 5 5 5 6 7 10 13 13 4 12 4 3 4 5 8 5 4 7 6 2 4 4 3 9 32 12 26 12 17 1 2 3 9 32
14 11 10 9 7 6 5 5 5 5 5 5 5 5 6 8 11 13 3 10 10 6 5 7 9 10 3 3 3 4 3 7 8 4 8 21 20 16 14 4 12 17 21 36 35
15 13 11 9 8 6 6 5 5 5 5 5 5 5 6 8 8 6 2 9 10 5 1 9 6 3 5 5 5 3 6 9 20 28 28 10 16 15 8 6 8 26 32 34 37
17 15 12 9 8 7 6 6 5 5 6 5 5 5 6 6 1 5 2 6 7 5 6 12 8 4 4 4 8 3 15 20 28 35 25 6 11 10 8 1 10 28 30 36 38
19 16 13 10 8 7 6 6 5 6 6 6 5 6 5 5 5 3 1 3 6 8 15 13 10 8 5 6 6 6 17 26 33 33 26 20 8 8 2 4 14 26 31 31 34
21 18 14 11 8 7 6 5 5 4 6 5 6 6 6 4 1 0 3 1 5 11 17 16 5 3 10 7 4 11 12 19 16 19 12 5 10 1 7 8 21 29 29 29 29
24 20 15 12 7 6 5 5 4 1 2 4 5 6 9 12 4 3 4 3 4 11 17 14 9 9 12 9 8 14 7 10 6 6 8 15 10 7 21 19 22 29 28 29 29
25 21 15 12 8 5 4 4 3 1 1 3 4 6 8 2 7 10 4 3 5 11 9 5 10 20 5 8 11 6 4 5 6 11 18 2 11 16 27 18 26 28 33 31 28
24 20 15 11 8 6 5 4 4 3 2 2 3 5 8 4 12 12 9 2 5 4 4 10 12 3 7 4 6 6 4 5 12 7 7 5 12 14 31 25 24 27 33 35 30
22 19 14 10 7 8 7 4 5 3 3 5 7 7 8 4 13 14 13 8 5 6 11 9 3 3 5 5 4 5 4 5 6 11 5 6 7 8 21 19 26 15 27 25 28
23 18 12 7 4 7 11 4 7 2 8 11 8 12 12 6 10 12 15 17 14 7 5 3 1 5 9 8 8 5 7 11 14 10 3 7 6 9 19 23 21 5 25 29 23
25 19 11 4 2 6 8 8 10 10 12 17 19 24 24 17 7 9 15 15 12 5 1 4 6 12 8 9 7 8 9 10 9 7 4 7 10 5 7 12 15 8 29 30 27
26 21 12 2 2 4 8 15 8 12 6 15 18 19 27 14 17 20 20 21 6 5 5 8 11 7 6 11 11 14 6 7 8 5 4 7 11 7 10 19 37 9 28 36 37
27 23 14 2 3 3 7 11 11 15 4 7 6 6 11 14 5 16 19 19 5 9 5 7 17 8 12 9 7 9 13 16 11 3 5 3 9 6 8 21 28 34 3 36 33
28 24 13 5 3 3 8 6 6 5 3 2 5 9 16 10 3 5 20 20 9 9 6 9 5 10 8 8 4 9 6 5 6 5 5 1 3 2 13 15 23 35 11 6 17
29 23 12 5 3 6 10 5 1 5 4 3 7 7 5 8 8 4 17 24 19 6 4 10 12 5 8 7 7 6 3 5 4 3 4 4 0 4 5 4 17 32 40 21 21
30 21 8 2 3 6 5 0 4 3 6 1 4 5 6 4 4 5 5 6 7 3 4 5 9 7 1 4 8 8 6 4 4 4 5 1 3 4 1 5 18 23 34 34 28
28 14 5 6 4 9 7 4 2 4 4 4 6 5 2 1 3 3 4 5 4 3 5 5 7 3 3 5 4 2 5 4 5 3 5 4 4 4 6 5 13 28 32 32 35
25 5 4 6 6 10 4 3 5 2 4 5 5 2 4 5 3 7 6 6 6 8 8 6 5 2 4 3 6 2 1 3 5 3 2 3 2 3 7 10 16 12 21 21 23
24 4 5 6 8 8 4 4 4 3 3 4 0 4 3 6 6 5 4 4 4 3 4 5 2 2 2 3 7 4 2 3 3 1 4 4 3 5 5 4 5 10 14 15 13
18 3 3 5 9 2 3 6 5 20 3 2 2 2 0 2 1 2 4 5 4 6 6 2 4 5 4 2 4 3 3 6 4 3 5 3 5 5 7 5 6 9 11 11 13
16 3 8 8 4 2 2 7 12 10 20 5 1 4 3 2 4 3 6 2 8 0 2 1 4 3 5 3 2 3 5 6 5 4 2 2 6 6 8 12 13 15 15 12 12
19 8 9 11 3 4 9 5 4 9 7 6 5 5 3 3 2 4 3 6 9 2 4 4 1 2 7 6 4 4 4 4 5 3 6 5 5 7 13 13 15 20 21 19 20
9 4 7 8 8 3 5 5 6 14 8 6 6 7 5 4 6 5 4 5 15 8 9 6 4 7 7 6 4 3 5 5 7 4 5 6 6 7 12 13 17 18 20 20 21
7 3 6 5 4 10 2 4 6 6 8 18 4 4 3 4 5 5 4 5 6 4 2 4 8 6 6 5 5 6 7 8 8 8 7 10 13 15 17 18 28 28 25 22 18
8 7 10 12 9 6 5 4 6 12 7 9 7 8 2 2 3 5 5 2 5 7 5 1 3 4 3 4 6 8 7 8 7 8 10 9 9 5 22 13 23 27 24 20 22
11 5 4 7 6 3 3 5 13 16 13 15 15 8 5 5 12 15 12 11 8 2 2 3 6 3 5 3 5 7 8 6 3 3 5 4 3 3 11 17 18 18 16 13 18
Wind_Direction
2 358 352 342 333 320 309 303 301 302 300 292 283 284 282 282 285 281 273 213 168 125 151 192 219 176 194 278 265 271 43 258 261 20 288 311 354 340 59 130 191 235 224 146 158
2 354 349 344 333 321 312 304 292 287 290 290 281 282 291 300 300 294 243 182 170 188 209 194 158 163 197 253 242 146 133 246 186 243 263 296 319 339 351 109 67 89 127 144 158
3 357 348 342 337 324 314 304 282 268 270 283 282 283 296 313 323 20 36 189 173 139 206 192 169 208 239 236 233 228 207 249 279 274 277 285 303 333 13 16 159 142 144 157 167
3 359 352 343 340 331 319 311 285 264 257 269 281 277 288 311 244 5 58 151 169 152 199 178 215 237 234 222 247 223 260 263 270 276 278 254 295 318 349 61 158 156 163 166 179
5 0 357 351 342 338 328 321 301 264 245 250 263 261 277 282 273 42 360 154 158 173 180 184 216 213 191 220 286 201 268 283 283 272 269 281 284 268 285 168 175 167 172 172 180
8 3 360 356 349 344 340 339 330 273 238 245 257 254 255 276 165 139 311 251 178 182 184 200 203 346 280 270 168 288 291 289 298 283 279 287 293 2 275 190 177 180 192 205 215
10 7 4 2 1 358 356 355 2 349 230 249 258 260 268 252 193 235 331 296 223 190 196 212 253 272 282 307 320 329 334 325 285 298 292 302 323 277 275 191 194 196 214 218 230
12 11 13 16 20 27 26 16 21 25 239 249 261 271 259 111 247 224 216 189 182 178 220 258 291 289 246 321 332 358 25 3 296 334 294 357 274 268 266 246 203 213 210 217 225
12 11 14 24 35 35 28 15 352 326 278 246 246 272 264 212 228 207 221 351 141 189 273 306 297 326 352 57 359 2 276 308 311 277 267 176 273 276 289 242 250 217 219 213 215
6 8 7 13 34 36 15 352 346 314 297 255 242 298 235 244 218 215 212 218 224 221 258 271 296 42 16 71 233 253 295 292 273 299 165 285 269 299 323 255 243 233 218 216 222
1 0 359 355 31 32 31 44 0 302 288 256 259 246 281 314 177 207 215 213 227 230 168 254 71 233 236 224 229 238 263 263 279 272 282 296 287 302 316 321 274 183 165 156 167
355 353 357 339 69 24 36 29 3 312 292 276 263 260 260 268 274 204 186 197 211 230 174 358 247 241 230 252 238 251 253 268 269 253 305 310 297 315 327 311 279 200 157 153 150
354 349 345 252 310 26 23 7 358 330 299 288 244 236 238 240 232 231 192 205 175 208 214 202 242 271 212 260 262 269 243 258 243 279 344 343 313 348 319 17 359 232 181 169 165
354 342 337 328 223 76 21 1 352 327 45 277 194 232 219 233 249 245 215 199 197 200 213 238 262 246 273 256 235 245 257 252 257 277 271 86 291 341 8 15 11 359 287 162 163
352 337 339 316 216 45 337 309 307 326 355 174 168 165 168 171 167 234 208 190 178 206 134 242 263 281 278 243 237 234 266 260 272 272 97 327 299 336 41 4 0 350 323 291 142
350 338 336 299 233 340 316 320 250 46 276 245 155 178 127 208 247 214 181 206 220 194 215 240 254 217 234 280 273 274 304 31 36 69 55 327 30 36 24 347 10 17 32 37 36
352 341 337 298 148 321 324 230 51 150 313 322 224 168 178 207 272 163 201 194 184 159 268 283 274 277 143 27 360 46 53 350 333 340 213 296 53 128 143 73 81 55 36 30 40
355 352 56 106 38 4 353 52 167 268 295 33 353 20 161 31 291 278 182 203 255 176 188 200 293 255 180 151 187 71 132 153 241 234 262 8 226 148 110 118 81 79 65 40 41
355 15 82 72 22 16 13 69 216 276 329 357 350 4 318 33 328 20 222 201 220 184 184 190 238 42 94 153 130 286 2 176 105 335 41 246 307 193 90 62 55 61 94 77 37
351 30 103 18 328 314 70 235 258 337 26 14 310 39 17 323 19 39 313 41 299 54 152 191 166 324 63 58 25 90 132 61 19 209 272 281 262 236 358 34 82 83 84 96 117
355 25 62 326 326 221 165 233 318 328 335 113 170 307 48 333 281 318 264 320 16 353 27 93 122 276 43 94 147 2 67 53 109 131 190 271 250 208 197 206 169 148 137 146 167
357 360 357 350 35 48 39 318 333 347 3 333 306 217 218 341 284 259 216 254 328 212 151 293 137 177 202 255 223 114 132 144 132 221 228 151 267 189 193 200 173 168 155 132 143
341 310 359 354 62 4 327 311 305 27 347 351 322 24 262 184 318 256 291 304 280 158 195 195 113 60 346 353 13 117 144 124 108 86 192 154 263 189 199 215 203 171 167 158 161
353 347 334 43 92 47 356 290 340 321 297 316 284 295 309 274 198 253 285 295 310 233 198 156 159 166 196 199 160 189 191 170 135 140 195 214 237 207 215 213 216 196 182 185 178
9 357 15 321 331 333 287 273 309 336 349 317 330 45 31 303 306 298 344 337 324 287 210 138 204 198 213 203 227 228 228 205 192 206 173 227 224 239 211 209 206 197 194 185 194
12 1 341 304 313 345 324 302 344 336 345 301 333 331 64 267 318 331 335 336 255 346 341 359 263 182 249 228 244 254 243 239 234 221 231 267 269 326 258 203 162 187 195 195 203
349 308 307 288 322 6 253 7 322 346 313 351 329 321 308 300 278 289 277 272 258 264 296 249 165 138 245 249 314 287 216 214 231 240 170 170 200 132 83 102 138 180 165 174 217